Location: Darr Branch
(32.1532°N, 97.3853°W)
Time: 10:11:29
(UTC+00:00)

COSMO-SKYMED 1 - Pass Details

Date: 18 November 2025
Orbit: 579 x 581 km, 97.9° (Epoch: 07 December)

Event Time Altitude Azimuth Distance (km) Brightness Sun altitude
Rises 12:06:06 0° 169° (SSE) 2,785 6.3 -11.9°
Reaches altitude 10° 12:08:15 10° 170° (S) 1,889 5.4 -11.5°
Maximum altitude 12:12:20 83° 257° (WSW) 589 2.4 -10.7°
Drops below altitude 10° 12:16:28 10° 346° (NNW) 1,900 4.8 -9.8°
Sets 12:18:38 0° 348° (NNW) 2,803 5.6 -9.4°
